Weather Roundup
Issued by NWS Springfield, MO

Current Version | Previous Version | Text Only | Print | Product List | Glossary On
Versions: 1 2 3 4 5 6 7 8 9 10 11 12 13 14 15 16 17 18 19 20 21 22 23 24 25 26 27 28 29 30 31 32 33 34 35 36 37 38 39 40 41 42 43 44 45 46 47 48 49 50
000
NZUS99 KSGF 050307
HRRSGF

HOURLY WEATHER
NATIONAL WEATHER SERVICE SPRINGFIELD MO
1000 PM CDT MON MAY 04 2015

......SGF CWA......

CITY           SKY/WX    TMP DP  RH WIND       PRES   REMARKS
SPRINGFIELD    CLEAR     67  54  63 S6        30.10R
JOPLIN         CLEAR     69  58  67 SE5       30.09R
WEST PLAINS    CLEAR     70  54  56 S6        30.14R
ROLLA          MOCLDY    68  55  63 S6        30.11R
OSAGE BEACH    MOCLDY   N/A N/A N/A SE6       30.09R
BRANSON        PTCLDY    68  54  60 CALM      30.13R

......SURROUNDING SGF CWA......

CITY           SKY/WX    TMP DP  RH WIND       PRES   REMARKS
CHANUTE        PTCLDY    68  59  73 SE6       30.07R
PARSONS        CLEAR     70  58  65 CALM      30.07R
COFFEYVILLE    CLEAR     68  58  70 SE6       30.05R
EMPORIA        CLOUDY    71  58  63 SE5       30.07R
GROVE OK       CLEAR     66  59  77 CALM      30.09R
ROGERS AR      CLEAR     67  54  63 E5        30.12R
SILOAM SPRINGS CLEAR     64  50  59 SE5       30.10R
HARRISON AR    CLEAR     67  54  63 S3        30.13R
NEAR YELLVILLE CLEAR     72  54  53 S3        30.09R

......KANSAS AND MISSOURI......

CITY           SKY/WX    TMP DP  RH WIND       PRES   REMARKS
KANSAS CTY INT CLOUDY    63  60  90 E8        30.09R
DOWNTOWN KC    CLOUDY    65  61  87 NE6       30.08S
COLUMBIA       CLOUDY    71  59  65 S7        30.08R
SEDALIA        CLOUDY    70  60  70 SE3       30.08R
ST JOSEPH      LGT RAIN  63  61  93 SE6       30.09R
ST LOUIS       MOCLDY    79  54  41 S9        30.10R
SPIRIT OF STL  PTCLDY    73  56  54 S6        30.09R
KIRKSVILLE     CLOUDY    68  64  87 CALM      30.07R
WICHITA        CLOUDY    72  58  61 S9        30.03R
TOPEKA         CLOUDY    64  60  87 E3        30.11R THUNDER
OLATHE         CLOUDY    66  62  87 NE7       30.08R

......TENNESSEE......

CITY           SKY/WX    TMP DP  RH WIND       PRES   REMARKS
MEMPHIS        CLEAR     75  55  49 SE9       30.15R
NASHVILLE      CLEAR     67  56  67 S3        30.22R

......ARKANSAS.......

CITY           SKY/WX    TMP DP  RH WIND       PRES   REMARKS
FAYETTEVILLE   CLEAR     60  57  89 CALM      30.10R
FT SMITH       CLEAR     71  54  54 SE3       30.07R
LITTLE ROCK    CLEAR     69  57  65 S7        30.11R

......OKLAHOMA.......

CITY           SKY/WX    TMP DP  RH WIND       PRES   REMARKS
TULSA          PTCLDY    74  57  55 S9        30.03R
PONCA CITY     MOCLDY    71  58  63 SE8       30.02R
MCALESTER      CLEAR     68  53  58 SE5       30.05R
OKLAHOMA CITY  MOCLDY    68  56  65 S7        30.01R

......IOWA............

CITY           SKY/WX    TMP DP  RH WIND       PRES   REMARKS
DES MOINES     LGT RAIN  64  60  87 E12       30.08S
QUAD CITIES    CLOUDY    66  61  84 E9        30.10R

......ILLINOIS........

CITY           SKY/WX    TMP DP  RH WIND       PRES   REMARKS
QUINCY         LGT RAIN  69  62  78 S8        30.08R
CHICAGO        CLOUDY    55  39  54 NE7       30.18S




USA.gov is the U.S. government's official web portal to all federal, state and local government web resources and services.